Вернуться в каталог

STARLINK-30932

АктивенСвязьVLEO
NORAD 58523·PAYLOAD·🇺🇸 United States

Запущен Dec 7, 2023 с Cape Canaveral Space Force Station

Loading…

Ближайшие Пролёты (ближайшие 24 часа)

TLE

СвежийSource: CelesTrak SupGP

Эпоха: Sep 14, 2026, 20:38 UTC

1 58523C 23191R   26257.86020833 -.00012935  00000+0 -46861-3 0  2577
2 58523  43.0011 114.8470 0001299 269.1086 157.6635 15.27577916    16

Отслеживайте STARLINK-30932 в реальном времени с AllMySat

Download on the App Store